FW6471 Weather Reports


time (UTC)temp
F
wind
direction
speed
knots
gust
knots
rain 1hr
in
rain 24hr
in
rain mn
in
humidity
%
barometer
mb
20260510190619 94 266 1.7 8.7 0.00 0.00 0.00 54 1016.2
20260510181619 92 298 1.7 7.0 0.00 0.00 0.00 57 1016.6
20260510173119 92 314 3.5 7.0 0.00 0.00 0.00 57 1017.1
20260510172119 93 262 0.9 5.2 0.00 0.00 0.00 55 1017.2
20260510171629 93 212 0.9 5.2 0.00 0.00 0.00 56 1017.3
20260510170619 92 164 0.9 5.2 0.00 0.00 0.00 58 1017.5
20260510165619 91 179 0.9 2.6 0.00 0.00 0.00 59 1017.5
20260510165119 91 145 2.6 7.0 0.00 0.00 0.00 58 1017.6
20260510164619 92 305 1.7 5.2 0.00 0.00 0.00 56 1017.6
20260510164119 91 278 0.0 4.3 0.00 0.00 0.00 58 1017.6
20260510163119 91 141 0.0 4.3 0.00 0.00 0.00 58 1017.7
20260510162119 91 187 0.9 7.0 0.00 0.00 0.00 58 1017.9
20260510161119 91 322 1.7 7.8 0.00 0.00 0.00 57 1017.9
20260510160619 91 153 2.6 6.1 0.00 0.00 0.00 56 1017.9
20260510160125 91 155 0.9 4.3 0.00 0.00 0.00 58 1018.0
20260510155619 90 290 0.9 6.1 0.00 0.00 0.00 59 1018.0
20260510155118 89 203 0.9 4.3 0.00 0.00 0.00 59 1018.0
20260510154619 89 205 1.7 6.1 0.00 0.00 0.00 59 1017.9
20260510153619 88 167 1.7 7.0 0.00 0.00 0.00 61 1017.9
20260510152619 87 172 0.9 4.3 0.00 0.00 0.00 63 1018.0
20260510152119 87 144 1.7 6.1 0.00 0.00 0.00 63 1018.0
20260510151619 86 163 0.9 2.6 0.00 0.00 0.00 65 1018.0
20260510150619 86 112 0.9 4.3 0.00 0.00 0.00 67 1018.0
20260510150125 86 135 0.9 4.3 0.00 0.00 0.00 67 1018.0
20260510145618 86 146 0.9 2.6 0.00 0.00 0.00 67 1018.0
20260510145119 86 147 1.7 5.2 0.00 0.00 0.00 67 1018.0
20260510144118 85 172 0.9 5.2 0.00 0.00 0.00 68 1018.0
20260510143619 85 160 1.7 6.1 0.00 0.00 0.00 69 1018.0
20260510142619 84 180 2.6 7.8 0.00 0.00 0.00 72 1017.9
20260510141118 82 145 2.6 5.2 0.00 0.00 0.00 76 1017.8
20260510140618 81 215 1.7 2.6 0.00 0.00 0.00 78 1017.8
20260510140125 81 186 1.7 4.3 0.00 0.00 0.00 78 1017.8
20260510135619 81 128 1.7 4.3 0.00 0.00 0.00 79 1017.7
20260510135119 81 176 0.9 7.8 0.00 0.00 0.00 79 1017.9
20260510134619 80 151 1.7 4.3 0.00 0.00 0.00 79 1017.9
20260510134118 80 170 2.6 4.3 0.00 0.00 0.00 80 1017.8
20260510133619 80 151 0.9 2.6 0.00 0.00 0.00 81 1017.8
20260510133118 80 166 0.9 2.6 0.00 0.00 0.00 81 1017.8
20260510132119 80 187 0.0 0.9 0.00 0.00 0.00 81 1017.6
20260510131618 79 187 0.9 4.3 0.00 0.00 0.00 81 1017.6
20260510131119 79 149 1.7 5.2 0.00 0.00 0.00 82 1017.5
20260510130618 79 132 2.6 6.1 0.00 0.00 0.00 83 1017.6
20260510130125 78 169 2.6 4.3 0.00 0.00 0.00 84 1017.7
20260510125618 77 88 0.9 2.6 0.00 0.00 0.00 86 1017.6
20260510124619 76 159 0.9 2.6 0.00 0.00 0.00 88 1017.6
20260510124119 76 168 1.7 2.6 0.00 0.00 0.00 88 1017.5
20260510123618 75 164 1.7 2.6 0.00 0.00 0.00 89 1017.4
20260510123118 75 158 0.9 2.6 0.00 0.00 0.00 90 1017.3
20260510122619 74 159 0.0 2.6 0.00 0.00 0.00 91 1017.3
20260510122119 74 157 0.9 2.6 0.00 0.00 0.00 92 1017.3
20260510120619 72 316 0.0 1.7 0.00 0.00 0.00 93 1017.2
20260510120125 72 316 0.0 0.0 0.00 0.00 0.00 93 1017.1
20260510114619 71 316 0.0 0.0 0.00 0.00 0.00 93 1016.8
20260510114119 71 316 0.0 0.0 0.00 0.00 0.00 93 1016.7
20260510113618 71 316 0.0 0.9 0.00 0.00 0.00 93 1016.6
20260510113119 71 316 0.0 0.0 0.00 0.00 0.00 93 1016.6
20260510112618 71 316 0.0 0.0 0.00 0.00 0.00 93 1016.4
20260510112118 71 316 0.0 0.0 0.00 0.00 0.00 93 1016.4
20260510110125 71 316 0.0 0.0 0.00 0.00 0.00 92 1016.3
20260510105618 71 316 0.0 0.0 0.00 0.00 0.00 92 1016.2
20260510104619 71 316 0.0 0.0 0.00 0.00 0.00 92 1016.0
20260510104118 71 316 0.0 0.0 0.00 0.00 0.00 92 1015.8
20260510103618 71 316 0.0 0.0 0.00 0.00 0.00 92 1015.7
20260510103119 71 316 0.0 0.0 0.00 0.00 0.00 92 1015.6
20260510102618 71 316 0.0 0.0 0.00 0.00 0.00 92 1015.6
20260510102118 71 316 0.0 0.0 0.00 0.00 0.00 92 1015.5
20260510101618 71 316 0.0 0.0 0.00 0.00 0.00 92 1015.4
20260510101118 71 316 0.0 0.0 0.00 0.00 0.00 92 1015.5
20260510100619 71 316 0.0 0.0 0.00 0.00 0.00 92 1015.4
20260510100124 71 316 0.0 0.0 0.00 0.00 0.00 92 1015.3
20260510095119 72 316 0.0 0.0 0.00 0.00 0.00 91 1015.3
20260510094618 72 316 0.0 0.0 0.00 0.00 0.00 91 1015.1
20260510094118 72 316 0.0 0.0 0.00 0.00 0.00 91 1015.0
20260510092618 72 316 0.0 0.0 0.00 0.00 0.00 91 1014.9
20260510092118 72 316 0.0 0.0 0.00 0.00 0.00 91 1014.9
20260510091118 72 316 0.0 0.0 0.00 0.00 0.00 91 1014.8
20260510090619 73 316 0.0 0.0 0.00 0.00 0.00 91 1014.7
20260510090124 73 316 0.0 0.0 0.00 0.00 0.00 90 1014.8
20260510085619 73 316 0.0 0.0 0.00 0.00 0.00 91 1014.7
20260510085118 73 316 0.0 0.9 0.00 0.00 0.00 90 1014.6
20260510084619 73 316 0.0 0.0 0.00 0.00 0.00 91 1014.6
20260510084119 73 316 0.0 0.0 0.00 0.00 0.00 90 1014.5
20260510083618 73 316 0.0 0.9 0.00 0.00 0.00 90 1014.5
20260510083119 73 316 0.0 0.0 0.00 0.00 0.00 90 1014.6
20260510082618 73 316 0.0 0.0 0.00 0.00 0.00 90 1014.6
20260510082118 73 316 0.0 0.0 0.00 0.00 0.00 90 1014.7
20260510081618 73 316 0.0 0.9 0.00 0.00 0.00 90 1014.7
20260510080618 73 316 0.0 0.0 0.00 0.00 0.00 90 1014.8
20260510080124 73 316 0.0 0.0 0.00 0.00 0.00 90 1014.8
20260510075118 74 316 0.0 0.0 0.00 0.00 0.00 90 1014.8
20260510074619 74 316 0.0 0.0 0.00 0.00 0.00 89 1014.8
20260510074118 74 316 0.0 0.0 0.00 0.00 0.00 89 1014.8
20260510073618 74 316 0.0 0.0 0.00 0.00 0.00 89 1014.9
20260510073118 74 316 0.0 0.0 0.00 0.00 0.00 89 1014.9
20260510072618 74 316 0.0 0.0 0.00 0.00 0.00 89 1015.0
20260510072118 74 316 0.0 0.0 0.00 0.00 0.00 89 1015.1
20260510071618 74 316 0.0 0.0 0.00 0.00 0.00 89 1015.0
20260510071118 74 316 0.0 0.0 0.00 0.00 0.00 88 1015.0
20260510070618 74 316 0.0 0.0 0.00 0.00 0.00 88 1015.1
20260510070125 74 316 0.0 0.0 0.00 0.00 0.00 88 1015.1
20260510065618 74 316 0.0 0.0 0.00 0.00 0.00 89 1015.1
20260510065118 74 316 0.0 0.0 0.00 0.00 0.00 89 1015.2
20260510064618 74 316 0.0 0.0 0.00 0.00 0.00 89 1015.2
20260510064118 74 316 0.0 0.0 0.00 0.00 0.00 89 1015.0
20260510063618 74 316 0.0 0.0 0.00 0.00 0.00 88 1015.1
20260510063118 74 316 0.0 0.0 0.00 0.00 0.00 88 1015.3
20260510062618 74 316 0.0 0.0 0.00 0.00 0.00 88 1015.5
20260510062118 74 316 0.0 0.0 0.00 0.00 0.00 88 1015.7
20260510061618 74 316 0.0 0.0 0.00 0.00 0.00 88 1015.9
20260510061118 74 316 0.0 0.0 0.00 0.00 0.00 88 1015.7
20260510060618 74 316 0.0 0.0 0.00 0.00 0.00 88 1015.7
20260510060125 74 316 0.0 0.0 0.00 0.00 0.00 88 1015.7
20260510055618 74 316 0.0 0.0 0.00 0.00 0.00 88 1015.9
20260510055118 74 316 0.0 0.0 0.00 0.00 0.00 88 1015.8
20260510054618 74 316 0.0 0.0 0.00 0.00 0.00 88 1016.0
20260510054118 75 316 0.0 0.0 0.00 0.00 0.00 88 1016.0
20260510053618 75 316 0.0 0.0 0.00 0.00 0.00 88 1016.2
20260510053118 75 316 0.0 0.0 0.00 0.00 0.00 88 1016.2
20260510052618 75 316 0.0 0.0 0.00 0.00 0.00 87 1016.1
20260510051618 75 316 0.0 0.0 0.00 0.00 0.00 87 1016.2
20260510051118 75 316 0.0 0.0 0.00 0.00 0.00 87 1016.2
20260510050618 75 316 0.0 8.7 0.00 0.00 0.00 87 1016.2
20260510050124 75 316 0.0 0.0 0.00 0.00 0.00 87 1016.3
20260510045618 75 316 0.0 0.0 0.00 0.00 0.00 86 1016.4
20260510045117 76 316 0.0 0.0 0.00 0.00 0.00 87 1016.4
20260510044618 76 316 0.0 0.0 0.00 0.00 0.00 87 1016.4
20260510044118 76 316 0.0 0.0 0.00 0.00 0.00 87 1016.4
20260510043618 76 316 0.0 0.0 0.00 0.00 0.00 86 1016.4
20260510043118 76 316 0.0 0.0 0.00 0.00 0.00 86 1016.4
20260510042118 76 316 0.0 0.9 0.00 0.00 0.00 86 1016.3
20260510041618 76 316 0.0 0.0 0.00 0.00 0.00 85 1016.4
20260510040618 76 316 0.0 0.0 0.00 0.00 0.00 84 1016.3
20260510040124 76 316 0.0 0.0 0.00 0.00 0.00 84 1016.4
20260510035618 76 316 0.0 0.9 0.00 0.00 0.00 83 1016.3
20260510035118 76 316 0.0 0.9 0.00 0.00 0.00 84 1016.2
20260510034618 76 316 0.0 0.0 0.00 0.00 0.00 83 1016.2
20260510034118 76 316 0.0 0.0 0.00 0.00 0.00 83 1016.2
20260510033117 77 316 0.0 0.0 0.00 0.00 0.00 82 1016.1
20260510032618 77 316 0.0 0.0 0.00 0.00 0.00 82 1016.1
20260510032117 77 316 0.0 0.0 0.00 0.00 0.00 82 1016.1
20260510031618 77 316 0.0 0.0 0.00 0.00 0.00 81 1016.2
20260510031118 77 316 0.0 0.0 0.00 0.00 0.00 81 1016.3
20260510030618 78 316 0.0 0.0 0.00 0.00 0.00 80 1016.2
20260510030124 78 316 0.0 0.0 0.00 0.00 0.00 80 1016.2
20260510025617 78 316 0.0 0.0 0.00 0.00 0.00 80 1016.1
20260510025118 78 316 0.0 0.0 0.00 0.00 0.00 79 1016.1
20260510024618 78 316 0.0 0.0 0.00 0.00 0.00 79 1016.1
20260510024118 79 316 0.0 0.0 0.00 0.00 0.00 79 1016.1
20260510023618 79 316 0.0 0.0 0.00 0.00 0.00 79 1016.1
20260509224618 88 308 0.9 2.6 0.00 0.00 0.00 54 1013.3
20260509224118 88 301 0.9 2.6 0.00 0.00 0.00 54 1013.3
20260509222117 89 229 0.9 2.6 0.00 0.00 0.00 52 1013.1
20260509221118 90 326 1.7 4.3 0.00 0.00 0.00 50 1013.1